This is the latest recevied weather packets stored in our database for station/object K6TTR. If no packets are shown the sender has not sent any weather packets the latest 1 day(s).
| Time | Temp. | Humidity | Pressure | Rain* | Wind** | Luminosity | Snow |
|---|---|---|---|---|---|---|---|
| 1778024918 | 21.11° C | 35% | 1012.7 hPa | 0 mm | 0 m/s | 209 W/m² | - |
| 1778024624 | 21.11° C | 37% | 1012.7 hPa | 0 mm | 2.24 m/s, 346° | 100 W/m² | - |
| 1778024316 | 21.11° C | 36% | 1012.8 hPa | 0 mm | 0.89 m/s, 336° | 148 W/m² | - |
| 1778024017 | 21.11° C | 35% | 1012.8 hPa | 0 mm | 2.68 m/s, 333° | 334 W/m² | - |
| 1778023722 | 21.11° C | 35% | 1012.8 hPa | 0 mm | 2.68 m/s, 59° | 185 W/m² | - |
| 1778023429 | 20.56° C | 34% | 1012.8 hPa | 0 mm | 0 m/s | 195 W/m² | - |
| 1778023115 | 21.11° C | 34% | 1012.8 hPa | 0 mm | 1.34 m/s, 338° | 97 W/m² | - |
| 1778022818 | 21.11° C | 37% | 1012.8 hPa | 0 mm | 0 m/s | 116 W/m² | - |
| 1778022523 | 21.11° C | 36% | 1012.8 hPa | 0 mm | 1.34 m/s, 275° | 265 W/m² | - |
| 1778022228 | 20.56° C | 36% | 1012.8 hPa | 0 mm | 0 m/s | 933 W/m² | - |
| 1778021913 | 20.56° C | 36% | 1013 hPa | 0 mm | 0.89 m/s, 263° | 895 W/m² | - |
| 1778021616 | 20° C | 38% | 1013.2 hPa | 0 mm | 0 m/s | 851 W/m² | - |
| 1778021321 | 20° C | 38% | 1013.4 hPa | 0 mm | 0.89 m/s, 346° | 149 W/m² | - |
| 1778021028 | 20° C | 37% | 1013.4 hPa | 0 mm | 1.34 m/s, 280° | 183 W/m² | - |
| 1778020713 | 20.56° C | 37% | 1013.3 hPa | 0 mm | 0.89 m/s, 276° | 197 W/m² | - |
| 1778020418 | 20.56° C | 36% | 1013.2 hPa | 0 mm | 0 m/s | 179 W/m² | - |
| 1778020122 | 20.56° C | 36% | 1013.3 hPa | 0 mm | 0.89 m/s, 23° | 227 W/m² | - |
| 1778019826 | 20.56° C | 38% | 1013.3 hPa | 0 mm | 0.89 m/s, 237° | 960 W/m² | - |
| 1778019515 | 20.56° C | 39% | 1013.5 hPa | 0 mm | 2.24 m/s, 57° | 930 W/m² | - |
| 1778019220 | 20° C | 38% | 1013.5 hPa | 0 mm | 0 m/s | 243 W/m² | - |
| 1778018926 | 20° C | 39% | 1013.7 hPa | 0 mm | 2.24 m/s, 22° | 243 W/m² | - |
| 1778018629 | 19.44° C | 37% | 1013.6 hPa | 0 mm | 0 m/s | 1051 W/m² | - |
| 1778018314 | 20° C | 39% | 1013.7 hPa | 0 mm | 0 m/s | 160 W/m² | - |
| 1778018019 | 20° C | 37% | 1013.6 hPa | 0 mm | 0 m/s | 151 W/m² | - |
| 1778017725 | 20° C | 38% | 1013.7 hPa | 0 mm | 1.79 m/s, 349° | 239 W/m² | - |
* Rain latest hour (hover to see other rain measurements)
** Current wind speed in m/s (hover to see current wind gust speed)